www.pogodaiklimat.ru

Погода и климат >> Архив погоды >> Корея >> Каннын


ПОГОДА в Канныне

  • Прогноз погоды в Канныне
  • Монитор погоды в Канныне

АРХИВ ПОГОДЫ в Канныне

Время (UTC), дата Ветер
(напр.,м/с)
 
Видим.   Явления Облачность Т
(С)
Тd
(С)
f
(%)
Тe
(С)
Тes
(С)
Комфортность P
(гПа)
Po
(гПа)
Тmin
(С)
Tmax
(С)
R
(мм)
R24
(мм)
S
(см)
00 16.07 С 2 35 км 9/9 200 м
[]
+21.6 +20.0 91 +27 +28 душно 1012.6 1009.5 +20.9 3
03 16.07 В 2 50 км 9/4 300 м
[]
+23.6 +20.5 83 +29 +36 душно 1012.7 1009.6
06 16.07 В 3 50 км ?/? +23.8 +20.5 82 +30 +35 очень
душно
1012.7 1009.6
09 16.07 В 2 50 км 8/8 600 м
[]
+23.6 +20.1 81 +29 +29 душно 1012.3 1009.2
12 16.07 СВ 1 50 км 8/8 600 м
[]
+22.5 +20.2 87 +29 +29 очень
душно
1012.9 1009.8 +24.4 0.0
15 16.07 В 1 50 км 8/4 1000 м
[]
+22.0 +19.9 88 +28 +28 душно 1013.7 1010.6
18 16.07 В 1 50 км 4/4 600 м
[]
+21.7 +19.4 87 +27 +27 душно 1012.9 1009.8
21 16.07 штиль 0 22 км 8/5 300 м
[]
+20.9 +19.8 93 +25 +26 комфорт 1013.6 1010.4
00 17.07 штиль 0 50 км 8/8 300 м
[]
+23.2 +18.7 76 +29 +34 душно 1012.8 1009.7 +20.8 0.0
03 17.07 В 2 50 км 8/4
[]
+26.6 +20.9 71 +33 +41 очень
душно
1012.1 1009.0
06 17.07 В 2 50 км ?/? +26.9 +21.6 73 +34 +34 очень
душно
1011.0 1007.9
09 17.07 штиль 0 50 км 9/6 2000 м
[]
+26.4 +21.1 73 +33 +34 очень
душно
1010.4 1007.3
12 17.07 штиль 0 50 км ?/? +24.5 +21.4 83 +31 +31 очень
душно
1011.1 1008.0 +27.1
15 17.07 В 2 50 км ?/? +23.7 +21.0 85 +30 +30 очень
душно
1010.4 1007.3
18 17.07 штиль 0 50 км ?/? +23.2 +21.4 90 +31 +31 очень
душно
1010.0 1006.9
21 17.07 З 2 50 км 9/4
[]
+24.0 +18.6 72 +29 +29 душно 1009.8 1006.7
00 18.07 Ю 3 50 км 6/0
[]
+27.9 +19.1 59 +33 +39 очень
душно
1009.4 1006.3 +23.1
03 18.07 В 3 50 км 8/1
[]
+29.9 +19.2 53 +36 +45 очень
душно
1008.5 1005.5
06 18.07 В 3 50 км 8/0
[]
+30.4 +19.1 51 +36 +42 очень
душно
1007.7 1004.7
09 18.07 В 2 50 км 4/0
[]
+29.8 +20.0 56 +36 +38 очень
душно
1006.6 1003.6
12 18.07 З 3 50 км 6/0
[]
+26.6 +22.2 77 +35 +35 очень
душно
1007.6 1004.5 +31.0
15 18.07 ЮЗ 2 50 км 4/0
[]
+24.6 +20.7 79 +31 +31 очень
душно
1008.1 1005.0
18 18.07 Ю 1 50 км 3/0
[]
+24.1 +20.4 80 +30 +30 очень
душно
1007.1 1004.0
21 18.07 штиль 0 50 км 3/0
[]
+23.2 +20.3 84 +30 +31 очень
душно
1008.4 1005.3
00 19.07 Ю 2 50 км 3/0
[]
+26.6 +20.4 69 +33 +42 очень
душно
1008.3 1005.2 +23.1
03 19.07 СВ 2 50 км 8/1
[]
+27.4 +21.2 69 +35 +46 очень
душно
1008.8 1005.7
06 19.07 СВ 2 50 км 8/0 2000 м
[]
+28.6 +21.3 65 +36 +41 очень
душно
1007.8 1004.8
09 19.07 В 2 50 км 10/3 2000 м
[]
+27.4 +22.3 74 +36 +37 очень
душно
1008.0 1004.9
12 19.07 ЮЗ 3 40 км ?/? +24.5 +23.4 94 +33 +33 очень
душно
1008.6 1005.5 +28.7 3
15 19.07 Ю 1 5000 м 10/1
[]
+24.3 +23.4 95 +33 +33 очень
душно
1008.3 1005.2
18 19.07 С 2 3700 м ?/? +23.3 +22.4 95 +32 +32 очень
душно
1008.4 1005.3 0.1
21 19.07 С 2 12 км 10/9 200 м
[]
+22.9 +21.3 91 +30 +30 очень
душно
1008.5 1005.4
00 20.07 С 3 4200 м ?/? +23.0 +22.4 96 +31 +31 очень
душно
1007.9 1004.8 +22.9 7
03 20.07 В 9 40 км 10/4 300 м
[]
+23.8 +22.4 92 +31 +31 очень
душно
1006.0 1002.9
06 20.07 В 4 50 км ?/? +24.7 +22.3 87 +32 +32 очень
душно
1003.6 1000.5 8
09 20.07 В 4 50 км 10// 600 м
[]
+24.5 +21.9 85 +31 +32 очень
душно
1003.0 999.9
12 20.07 В 10 50 км ?/? +23.5 +21.9 91 +30 +30 очень
душно
1002.5 999.4 +24.9 11
15 20.07 В 4 50 км 9/9 300 м
[]
+23.8 +22.2 91 +31 +31 очень
душно
1001.4 998.3
18 20.07 В 2 40 км ?/? +23.2 +22.3 95 +32 +32 очень
душно
999.3 996.2
21 20.07 штиль 0 35 км 10// 200 м
[]
+22.9 +22.5 98 +31 +32 очень
душно
998.8 995.7
00 21.07 штиль 0 50 км ?/? +23.6 +23.0 96 +31 +31 очень
душно
998.8 995.7 +22.9 6
03 21.07 С 1 35 км 10/4 200 м
[]
+24.2 +23.3 95 +32 +39 очень
душно
999.1 996.0
06 21.07 ЮЗ 5 50 км 9/0
[]
+30.2 +22.8 65 +40 +44 очень
душно
998.7 995.7 3
09 21.07 50 км н/о +29.1 +22.3 67 +38 +39 очень
душно
999.8 996.8
12 21.07 З 8 50 км 8/8 1500 м
[]
+28.4 +20.9 64 +36 +36 очень
душно
1001.7 998.7 +30.7 3
15 21.07 50 км н/о +28.5 +20.2 61 +35 +35 очень
душно
1001.7 998.7
18 21.07 З 4 50 км 1/1 1000 м
[]
+27.9 +19.4 60 +34 +34 очень
душно
1002.1 999.1
21 21.07 З 8 50 км 1/0
[]
+28.2 +18.5 56 +33 +33 очень
душно
1002.7 999.7
00 22.07 ЮЗ 10 50 км 1/0
[]
+30.0 +19.3 53 +36 +36 очень
душно
1003.3 1000.3 +27.6 0.0
03 22.07 ЮЗ 5 50 км 3/0
[]
+32.5 +19.7 47 +38 +47 очень
душно
1002.8 999.8
06 22.07 ЮЗ 4 50 км ясно +33.9 +21.3 48 +42 +51 опасность
перегрева
1002.3 999.3
09 22.07 З 3 50 км ясно +33.1 +20.9 49 +40 +42 очень
душно
1002.3 999.3
12 22.07 ЮЗ 5 50 км 8/0
[]
+29.9 +20.4 57 +37 +37 очень
душно
1003.5 1000.5 +35.0
15 22.07 ЮЗ 6 45 км 6/0
[]
+29.5 +20.3 58 +36 +36 очень
душно
1003.7 1000.7
18 22.07 ЮЗ 5 35 км 8/0
[]
+29.2 +20.3 59 +36 +36 очень
душно
1003.9 1000.9
21 22.07 ЮЗ 4 50 км 8/0
[]
+28.9 +18.6 54 +34 +34 очень
душно
1003.5 1000.5

 

Местоположение метеостанции Каннын (Корея): широта 37.75 долгота 128.90 высота над уровнем моря 26 м.

В архиве по умолчанию представлена погода в Канныне за последнюю неделю. Архивные данные за месяц целиком и за предыдущие месяцы, начиная с января 2011 года, Вы можете получить, выбрав интересующий диапазон дат из раскрывающегося списка и нажав кнопку "Ввод!".


*Определитесь, кто Вы:
робот инопланетянин человек

Внимание! Время в таблицах - всемирное. Для получения местного времени необходимо прибавить поправку, которая равна 9 ч.

Смотрите также архив погоды в соседних городах и на ближайших метеорологических станциях:

Погода на Перевале Daegwallyeong (Корея) (15 км)
Погода в Донгхэ (Корея) (34 км)
Погода в Сокчхо (Корея) (63 км)
Погода в Йонволе (Корея) (74 км)
Погода в Вонджу (Корея) (96 км)
Погода в Ульджине (Корея) (97 км)
Погода в Чхунчхоне (Корея) (104 км)
Погода в Чунчоне (Корея) (106 км)
Погода в Чангионе (КНДР) (126 км)
Погода в Букчунчеоне (Корея) (129 км)

Пояснения к столбцам:

Ветер - указаны скорость ветра в м/с - средняя за 10 мин, порывы в срок и между сроками (в фигурных скобках) и направление, откуда дует ветер: С - северный, СВ - северо-восточный, В - восточный, ЮВ - юго-восточный, Ю - южный, ЮЗ - юго-западный, З - западный, СЗ - северо-западный.
Видимость - горизонтальная дальность видимости в метрах или километрах. При видимости от 1 до 10 км при отсутствии осадков обычно наблюдается дымка, при ухудшении видимости до 1 км и менее - туман. В сухую погоду видимость может ухудшаться дымом, пылью или мглою.
Явления - указаны атмосферные явления, наблюдавшиеся в срок или в последний час перед сроком; фигурными скобками обозначены явления, наблюдавшиеся между сроками (за 1-3 часа до срока); квадратными скобками обозначены град или гололедные отложения с указанием их диаметра в мм.
Облачность - указаны через наклонную черту общая и нижняя облачность в баллах и высота нижней границы облаков в метрах; квадратными скобками обозначены формы облаков: Ci - перистые, Cs - перисто-слоистые, Cc - перисто-кучевые, Ac - высококучевые, As - высокослоистые, Sc - слоисто-кучевые, Ns - слоисто-дождевые, Cu - кучевые, Cb - кучево-дождевые. Подробнее классификацию облаков см. в Атласе облаков (PDF).
T - Температура воздуха - температура, измеренная на высоте 2 м над землей.
Td - Температура точки росы - температура, при понижении до которой содержащийся в воздухе водяной пар достигнет насыщения.
f - Относительная влажность воздуха - влажноcть воздуха, измеренная на высоте 2 м над землей.
Te - Эффективная температура - температура, которую ощущает одетый по сезону человек в тени. Характеристика душности погоды. При расчете учитывается влияние влажности воздуха и скорости ветра на теплоощущения человека.
Tes - Эффективная температура на солнце - температура, которую ощущает человек, с поправкой на солнечный нагрев. Характеристика знойности погоды. Зависит от высоты солнца над горизонтом, облачности и скорости ветра. Ночью, в пасмурную погоду, а также при ветре 12 м/с и более поправка равна нулю.
P - Атмосферное давление - приведенное к уровню моря атмосферное давление.
Po - Атмосферное давление - измеренное на уровне метеостанции атмосферное давление.
Tmin - Минимальная температура - минимум температуры воздуха на высоте 2 м над землей.
Tmax - Максимальная температура - максимум температуры воздуха на высоте 2 м над землей.
R - Количество осадков - Количество выпавших осадков за период времени, мм. При наведении курсора мыши на число - период времени, за который выпало указанное количество осадков.
R24 - Количество осадков - Количество выпавших осадков за 24 часа, мм.
S - Снежный покров - Высота снежного покрова, см. При наведении курсора мыши на число - состояние снежного покрова и степень покрытия местности в баллах.